Stündliche Wetter Juigalpa

Heute, 5 März, Freitag

Zeit Temperatur Niederschläge Wind Luftdruck Luftfeuchtigkeit
00:00 +20°C° 0 mm 3 m/S 752 mmHg 81%
01:00 +20°C° 0 mm 3 m/S 752 mmHg 83%
02:00 +20°C° 0 mm 3 m/S 752 mmHg 85%
03:00 +20°C° 0 mm 3 m/S 752 mmHg 88%
04:00 +19°C° 0 mm 3 m/S 752 mmHg 88%
05:00 +19°C° 0 mm 3 m/S 752 mmHg 89%
06:00 +19°C° 0 mm 3 m/S 752 mmHg 90%
07:00 +22°C° 0 mm 4 m/S 752 mmHg 75%
08:00 +27°C° 0 mm 5 m/S 753 mmHg 60%
09:00 +30°C° 0 mm 6 m/S 753 mmHg 44%
10:00 +33°C° 0 mm 6 m/S 752 mmHg 39%
11:00 +34°C° 0 mm 7 m/S 752 mmHg 34%
12:00 +36°C° 0 mm 7 m/S 751 mmHg 29%
13:00 +36°C° 0 mm 7 m/S 750 mmHg 30%
14:00 +36°C° 0 mm 7 m/S 749 mmHg 30%
15:00 +36°C° 0 mm 7 m/S 748 mmHg 30%
16:00 +34°C° 0 mm 6 m/S 749 mmHg 37%
17:00 +32°C° 0 mm 5 m/S 749 mmHg 44%
18:00 +29°C° 0 mm 4 m/S 749 mmHg 50%
19:00 +27°C° 0 mm 4 m/S 750 mmHg 59%
20:00 +25°C° 0 mm 4 m/S 751 mmHg 67%
21:00 +22°C° 0 mm 3 m/S 751 mmHg 75%
22:00 +22°C° 0 mm 3 m/S 751 mmHg 80%
23:00 +21°C° 0 mm 3 m/S 751 mmHg 85%

Morgen, 6 März, Samstag

Zeit Temperatur Niederschläge Wind Luftdruck Luftfeuchtigkeit
00:00 +20°C° 0 mm 2 m/S 752 mmHg 89%
01:00 +20°C° 0 mm 2 m/S 751 mmHg 90%
02:00 +20°C° 0 mm 2 m/S 751 mmHg 91%
03:00 +19°C° 0 mm 2 m/S 751 mmHg 92%
04:00 +19°C° 0 mm 2 m/S 751 mmHg 92%
05:00 +19°C° 0 mm 2 m/S 752 mmHg 92%
06:00 +19°C° 0 mm 2 m/S 752 mmHg 92%
07:00 +22°C° 0 mm 3 m/S 752 mmHg 77%
08:00 +26°C° 0 mm 4 m/S 753 mmHg 62%
09:00 +30°C° 0 mm 5 m/S 753 mmHg 47%
10:00 +32°C° 0 mm 5 m/S 752 mmHg 40%
11:00 +34°C° 0 mm 5 m/S 752 mmHg 33%
12:00 +36°C° 0 mm 5 m/S 751 mmHg 26%
13:00 +36°C° 0 mm 5 m/S 750 mmHg 27%
14:00 +36°C° 0 mm 5 m/S 749 mmHg 27%
15:00 +36°C° 0 mm 5 m/S 748 mmHg 28%
16:00 +34°C° 0 mm 5 m/S 749 mmHg 35%
17:00 +32°C° 0 mm 5 m/S 749 mmHg 42%
18:00 +29°C° 0 mm 4 m/S 749 mmHg 48%
19:00 +27°C° 0 mm 4 m/S 750 mmHg 57%
20:00 +26°C° 0 mm 4 m/S 751 mmHg 65%
21:00 +23°C° 0 mm 4 m/S 752 mmHg 74%
22:00 +22°C° 0 mm 4 m/S 752 mmHg 78%
23:00 +22°C° 0 mm 3 m/S 752 mmHg 83%

übermorgen, 7 März, Sonntag

Zeit Temperatur Niederschläge Wind Luftdruck Luftfeuchtigkeit
00:00 +21°C° 0 mm 3 m/S 752 mmHg 88%
01:00 +22°C° 0 mm 3 m/S 752 mmHg 85%
02:00 +22°C° 0 mm 3 m/S 752 mmHg 83%
03:00 +24°C° 0 mm 3 m/S 752 mmHg 80%
04:00 +22°C° 0 mm 3 m/S 752 mmHg 84%
05:00 +22°C° 0 mm 4 m/S 753 mmHg 87%
06:00 +21°C° 0 mm 4 m/S 753 mmHg 91%
07:00 +25°C° 0 mm 5 m/S 753 mmHg 78%
08:00 +27°C° 0 mm 7 m/S 754 mmHg 65%
09:00 +31°C° 0 mm 8 m/S 755 mmHg 52%
10:00 +32°C° 0 mm 8 m/S 754 mmHg 49%
11:00 +33°C° 0 mm 8 m/S 753 mmHg 46%
12:00 +35°C° 0 mm 9 m/S 752 mmHg 42%
13:00 +35°C° 0 mm 9 m/S 752 mmHg 41%
14:00 +35°C° 0 mm 9 m/S 751 mmHg 40%
15:00 +35°C° 0 mm 9 m/S 750 mmHg 38%
16:00 +34°C° 0 mm 8 m/S 750 mmHg 42%
17:00 +32°C° 0 mm 7 m/S 751 mmHg 46%
18:00 +30°C° 0 mm 6 m/S 751 mmHg 50%
19:00 +28°C° 0 mm 6 m/S 752 mmHg 58%
20:00 +26°C° 0 mm 6 m/S 753 mmHg 65%
21:00 +25°C° 0 mm 5 m/S 753 mmHg 73%
22:00 +23°C° 0 mm 6 m/S 753 mmHg 77%
23:00 +23°C° 0 mm 6 m/S 754 mmHg 81%

8 März, Montag

Zeit Temperatur Niederschläge Wind Luftdruck Luftfeuchtigkeit
00:00 +23°C° 0 mm 7 m/S 754 mmHg 85%
01:00 +23°C° 0 mm 7 m/S 753 mmHg 85%
02:00 +23°C° 0 mm 7 m/S 753 mmHg 85%
03:00 +23°C° 0 mm 8 m/S 753 mmHg 86%
04:00 +23°C° 0 mm 8 m/S 753 mmHg 85%
05:00 +23°C° 0 mm 8 m/S 753 mmHg 85%
06:00 +23°C° 0 mm 8 m/S 754 mmHg 84%
07:00 +26°C° 0 mm 9 m/S 754 mmHg 74%
08:00 +28°C° 0 mm 9 m/S 754 mmHg 63%
09:00 +32°C° 0 mm 10 m/S 755 mmHg 52%
10:00 +33°C° 0 mm 10 m/S 754 mmHg 47%
11:00 +36°C° 0 mm 10 m/S 753 mmHg 42%
12:00 +37°C° 0 mm 10 m/S 753 mmHg 37%
13:00 +37°C° 0 mm 9 m/S 752 mmHg 37%
14:00 +37°C° 0 mm 9 m/S 751 mmHg 37%
15:00 +37°C° 0 mm 9 m/S 751 mmHg 37%
16:00 +35°C° 0 mm 8 m/S 751 mmHg 42%
17:00 +33°C° 0 mm 7 m/S 751 mmHg 48%
18:00 +32°C° 0 mm 6 m/S 752 mmHg 53%
19:00 +29°C° 0 mm 6 m/S 752 mmHg 58%
20:00 +28°C° 0 mm 7 m/S 753 mmHg 63%
21:00 +27°C° 0 mm 7 m/S 754 mmHg 68%
22:00 +26°C° 0 mm 7 m/S 754 mmHg 71%
23:00 +26°C° 0 mm 7 m/S 754 mmHg 74%

9 März, Dienstag

Zeit Temperatur Niederschläge Wind Luftdruck Luftfeuchtigkeit
00:00 +26°C° 0 mm 8 m/S 754 mmHg 77%
01:00 +24°C° 0 mm 8 m/S 753 mmHg 79%
02:00 +24°C° 0 mm 8 m/S 753 mmHg 80%
03:00 +24°C° 0 mm 8 m/S 752 mmHg 82%
04:00 +24°C° 0 mm 9 m/S 752 mmHg 82%
05:00 +24°C° 0 mm 9 m/S 753 mmHg 82%
06:00 +24°C° 0 mm 9 m/S 753 mmHg 81%
07:00 +27°C° 0 mm 9 m/S 753 mmHg 74%
08:00 +29°C° 0 mm 10 m/S 754 mmHg 66%
09:00 +31°C° 0 mm 10 m/S 754 mmHg 59%
10:00 +33°C° 0 mm 10 m/S 753 mmHg 54%
11:00 +34°C° 0 mm 10 m/S 753 mmHg 48%
12:00 +37°C° 0 mm 10 m/S 752 mmHg 43%
13:00 +36°C° 0 mm 10 m/S 751 mmHg 44%
14:00 +36°C° 0 mm 10 m/S 751 mmHg 45%
15:00 +36°C° 0 mm 10 m/S 750 mmHg 46%
16:00 +33°C° 0 mm 9 m/S 750 mmHg 54%
17:00 +31°C° 0 mm 9 m/S 751 mmHg 62%
18:00 +28°C° 0 mm 8 m/S 752 mmHg 69%
19:00 +27°C° 0 mm 8 m/S 752 mmHg 74%
20:00 +27°C° 0 mm 8 m/S 753 mmHg 78%
21:00 +26°C° 0 mm 8 m/S 753 mmHg 83%
22:00 +26°C° 0 mm 7 m/S 753 mmHg 83%
23:00 +26°C° 0 mm 7 m/S 753 mmHg 83%

10 März, Mittwoch

Zeit Temperatur Niederschläge Wind Luftdruck Luftfeuchtigkeit
00:00 +24°C° 0 mm 7 m/S 753 mmHg 83%
01:00 +24°C° 0 mm 8 m/S 753 mmHg 83%
02:00 +24°C° 0 mm 8 m/S 752 mmHg 82%
03:00 +24°C° 0 mm 8 m/S 752 mmHg 82%
04:00 +24°C° 0 mm 8 m/S 752 mmHg 82%
05:00 +24°C° 0 mm 8 m/S 752 mmHg 82%
06:00 +24°C° 0 mm 8 m/S 752 mmHg 82%
07:00 +26°C° 0 mm 9 m/S 753 mmHg 74%
08:00 +28°C° 0 mm 10 m/S 753 mmHg 66%
09:00 +31°C° 0 mm 10 m/S 754 mmHg 58%
10:00 +33°C° 0 mm 10 m/S 753 mmHg 51%
11:00 +34°C° 0 mm 10 m/S 752 mmHg 45%
12:00 +37°C° 0 mm 9 m/S 752 mmHg 38%
13:00 +37°C° 0 mm 9 m/S 751 mmHg 39%
14:00 +37°C° 0 mm 9 m/S 750 mmHg 39%
15:00 +37°C° 0 mm 9 m/S 749 mmHg 39%
16:00 +34°C° 0 mm 8 m/S 750 mmHg 47%
17:00 +32°C° 0 mm 7 m/S 750 mmHg 54%
18:00 +29°C° 0 mm 7 m/S 751 mmHg 62%
19:00 +28°C° 0 mm 6 m/S 751 mmHg 67%
20:00 +27°C° 0 mm 6 m/S 752 mmHg 71%
21:00 +26°C° 0 mm 6 m/S 753 mmHg 76%
22:00 +26°C° 0 mm 7 m/S 753 mmHg 77%
23:00 +26°C° 0 mm 7 m/S 753 mmHg 78%
Mehr zeigen

Wir brauchen deine Erlaubnis

Meteoprog und unser Service Anbieter werden persönliche Daten aufbewahren, so wie Cookies, Geräte Bezeichnung oder ähnliche Technologien von deinem Gerät und Prozess, so wie Persönliche Daten Inhalte und Werbungen, genauso wie social Media und den Verkehr zu analysieren.

  • Aufbewahrung und/oder Zugang zu deiner Geräte Informationen.

    Cookies, Geräte Bezeichnung oder andere Informationen, können aufbewahrt oder Zugang zu deinem Gerät erhalten, für den Grund, der oben angegeben wird.

  • Personalisierte Werbung und Inhalte, Messungen, Einblick in das Publikum und Produkt Entwicklung.

    Werbungen und Inhalte können personalisiert werden, basierend auf ein Profil. Mehr Daten können besser personalisierte Werbungen und Inhalte hinzufügen. Werbung und Inhalte können gezeigt und gemessen werden. Einblicke über das Publikum, welche die Werbung gesehen haben und den Inhalt, können abgeleitet werden. So wie Daten können genutzt werden, um es zu verbessern oder die Benutzer Erfahrung zu verbessern das System und die Software.

Wenn du “Ich stimme zu” klickst, erlaubst du uns, die Cookies zu benutzen die Geräte Bezeichnung, den Web oder ähnliche Technologien zu benutzen. Deine Settings, können in deinem Gerät bei deinem Browser geändert werden.

Für den bestimmten Zweck, berechtigten Interessen beruhen darauf, mehr als auf den Inhalt. Du kannst mehr darüber in unseren Privaten und Cookie Politik lesen.